Wind_Speed
17 17 17 17 16 15 15 16 15 15 15 16 16 16 17 16 17 17 17 18 18 18 18 19 18 19 19 19 18 18 19 19 19 19 19 19 20 20 20 19 18 18 17
17 18 18 18 17 16 16 16 16 16 16 16 17 17 17 17 17 18 19 19 19 19 19 20 20 20 20 20 19 19 19 19 19 19 19 20 20 21 21 20 20 19 19
16 17 17 17 16 16 17 17 17 17 17 17 17 17 18 18 18 18 19 20 20 20 20 20 21 21 20 20 21 20 21 20 20 20 20 19 19 20 21 21 21 20 20
16 16 16 17 16 16 16 16 16 17 18 18 18 18 18 19 19 19 19 20 20 21 21 21 21 22 22 21 21 21 22 22 22 21 21 20 20 20 20 21 22 22 21
16 17 17 17 16 16 15 16 16 17 17 17 18 19 19 19 20 19 19 20 20 20 21 22 22 22 22 21 22 22 22 22 22 22 22 21 21 20 20 21 22 22 22
16 17 17 16 16 16 16 16 16 16 17 17 18 19 20 20 20 20 19 19 21 22 22 22 22 23 22 23 23 23 23 22 23 23 23 22 22 21 21 21 22 23 23
16 16 16 16 17 17 16 15 16 16 17 18 18 18 19 19 20 20 20 20 20 21 21 22 22 22 23 23 23 23 24 24 24 24 24 23 23 23 23 22 23 24 24
16 16 15 16 16 16 16 16 16 16 16 17 17 18 19 19 20 21 21 20 20 20 20 22 22 22 22 23 23 24 24 25 25 25 25 25 25 24 25 25 25 26 26
17 16 15 16 16 15 16 17 17 17 17 17 18 18 18 18 19 20 20 21 21 21 21 21 21 22 22 22 24 24 24 24 25 26 26 26 26 26 26 27 27 27 27
16 16 17 17 18 18 17 17 17 17 17 17 17 18 18 18 19 19 21 21 21 21 21 21 22 22 23 23 23 24 25 25 26 26 26 26 27 27 28 28 28 27 28
17 17 17 17 17 18 18 17 17 17 17 17 17 18 19 19 19 19 20 21 21 22 22 22 23 23 23 24 24 25 25 26 26 27 27 27 28 28 29 29 29 28 29
17 17 17 17 17 17 18 17 17 17 17 17 18 18 18 19 20 20 20 20 21 22 22 22 23 24 24 25 26 26 26 26 26 27 27 28 28 29 29 29 29 29 30
16 16 15 16 16 17 17 17 16 17 17 17 18 18 18 18 19 19 20 20 21 22 23 23 23 24 25 25 26 26 27 27 27 27 28 28 29 29 30 30 30 31 31
16 15 15 15 15 15 16 17 16 16 17 17 17 18 18 19 19 18 19 19 20 21 22 22 23 23 24 24 25 26 27 27 27 27 28 29 29 30 30 30 30 30 30
16 16 15 15 15 15 15 15 15 16 16 16 17 18 18 19 19 19 20 20 20 20 20 21 22 23 23 24 25 25 26 26 27 28 28 28 28 29 30 30 30 30 30
15 14 14 14 15 15 15 15 15 16 16 17 17 18 18 18 19 20 20 20 20 20 19 20 22 23 23 24 24 25 26 26 27 27 28 28 28 28 29 30 30 30 30
14 13 13 14 14 14 14 15 15 16 16 16 17 17 17 18 18 19 19 19 19 19 19 20 21 22 23 23 24 25 25 26 27 27 27 27 27 28 28 29 30 30 30
14 13 14 14 14 14 14 14 14 15 15 16 16 16 17 18 19 19 18 18 18 19 19 20 21 22 23 24 25 25 26 26 26 26 27 27 27 28 28 29 30 30 31
14 14 15 15 14 14 15 15 15 15 16 16 16 16 18 19 19 19 19 18 19 19 20 21 22 23 24 24 25 25 26 26 26 26 27 28 28 29 29 29 30 31 32
14 15 15 15 14 14 15 15 15 16 16 17 17 17 18 19 19 19 19 19 20 20 21 21 22 22 23 24 24 25 26 27 27 28 28 29 29 30 30 30 30 31 31
14 15 15 15 15 15 15 15 16 16 16 17 18 19 19 19 19 19 20 20 21 21 22 22 23 23 24 25 26 26 26 27 28 28 29 30 30 31 31 31 31 31 31
14 15 15 15 15 15 15 16 16 16 17 17 18 19 19 20 19 20 20 21 21 22 23 23 23 24 24 25 26 26 26 27 27 28 29 29 30 30 30 30 31 31 32
15 15 15 14 15 15 16 16 16 16 17 17 18 19 19 20 20 21 20 20 21 21 22 22 23 23 24 25 26 26 26 27 26 27 27 27 27 28 28 28 29 30 31
15 15 15 15 15 16 16 16 16 16 17 17 18 19 20 20 21 21 21 21 21 21 22 22 22 24 25 25 26 26 25 25 25 26 26 27 27 27 27 28 28 29 30
16 16 16 16 16 16 16 16 17 17 18 18 19 20 21 21 20 20 21 21 21 21 22 23 23 24 24 24 25 25 25 25 25 26 26 27 27 27 28 28 28 29 30
18 18 17 17 17 17 17 18 18 18 19 19 20 21 21 21 20 20 21 22 22 22 22 22 23 23 23 23 23 24 25 26 26 26 26 27 27 28 28 29 29 29 30
Wind_Direction
281 279 279 276 273 271 267 262 262 263 262 259 257 255 254 251 252 251 251 252 253 249 246 245 244 244 244 245 244 243 242 245 246 245 247 247 247 248 249 250 249 250 251
282 282 278 277 274 269 266 265 261 262 261 261 258 257 255 253 253 253 253 254 254 252 250 248 247 248 246 246 244 243 244 246 247 247 248 250 250 249 249 251 251 251 253
284 282 280 275 274 271 270 268 264 262 261 260 258 256 254 253 253 254 256 256 257 255 254 252 250 250 250 248 246 245 245 246 247 246 248 250 250 251 250 251 252 252 253
284 282 279 276 275 273 271 269 266 263 263 262 259 256 255 255 253 253 255 257 258 256 256 254 253 252 251 251 250 247 247 248 248 247 247 248 250 251 252 251 253 253 253
284 284 283 279 277 273 271 269 268 265 264 263 259 257 256 256 256 255 257 258 256 256 256 256 254 253 252 252 251 250 249 249 248 249 249 249 249 249 252 252 253 254 253
285 282 281 278 274 273 270 269 268 265 265 265 260 257 257 257 257 257 257 260 258 257 257 256 254 253 251 252 251 250 249 249 248 250 250 250 251 252 254 255 255 256 255
285 285 281 276 272 271 271 271 270 267 265 266 263 259 257 258 258 259 258 260 260 259 258 257 255 253 251 250 249 249 250 250 249 249 250 251 252 253 255 255 255 256 256
285 287 283 277 273 272 270 271 270 268 266 266 265 262 259 259 258 259 259 260 261 261 260 258 255 254 251 250 250 250 250 250 250 251 252 252 253 253 254 256 258 258 257
286 287 286 281 275 272 272 270 268 267 268 266 265 262 261 262 262 260 260 262 262 262 261 258 256 255 253 253 252 250 251 252 252 252 252 253 254 255 256 258 260 258 255
288 287 285 281 276 274 272 272 269 266 267 266 265 263 262 263 263 262 262 263 263 262 261 259 260 257 255 255 253 252 252 253 253 253 253 254 254 256 258 259 259 258 255
288 288 287 285 280 277 274 271 267 265 267 267 266 264 263 263 264 263 264 263 261 261 260 259 259 259 258 256 256 255 254 254 254 254 254 255 255 256 258 259 259 258 256
290 289 288 285 279 276 275 272 267 265 266 269 268 266 266 265 265 265 265 265 263 262 260 259 259 259 259 258 256 256 256 255 256 256 256 256 257 258 257 258 258 258 257
289 290 290 289 281 277 273 271 269 268 268 268 269 267 267 266 267 267 267 268 266 264 262 261 261 261 260 259 258 258 257 257 257 257 258 259 260 259 259 258 259 259 258
280 284 287 288 286 280 274 272 271 268 268 268 270 269 268 269 270 269 269 269 268 266 264 262 262 261 261 260 260 259 259 259 259 259 260 261 260 260 260 259 260 259 259
279 281 283 286 283 281 277 274 271 269 270 271 271 271 272 272 273 271 271 271 271 268 266 265 265 263 262 261 262 261 261 260 261 262 262 263 262 262 261 260 260 260 260
282 281 282 284 283 278 277 277 273 270 271 271 272 273 274 275 275 274 273 272 272 270 269 268 267 266 265 265 264 263 263 262 263 263 262 263 264 263 262 261 260 260 260
284 282 282 284 284 281 276 275 271 270 271 273 274 273 275 277 278 277 275 274 272 272 271 270 270 268 268 267 265 264 263 263 263 262 261 261 262 262 262 261 260 259 259
285 285 284 285 285 282 277 273 272 270 272 274 274 275 276 277 280 281 278 274 274 274 272 272 270 269 268 269 267 265 263 263 263 262 261 261 262 262 262 260 260 260 259
286 286 284 283 282 281 277 275 272 271 274 276 276 277 279 281 282 282 280 277 275 273 273 273 273 272 271 270 268 266 263 264 265 264 263 262 262 263 263 262 262 261 260
289 286 285 283 282 282 280 276 273 274 276 277 277 279 281 282 283 281 281 278 276 273 273 274 274 273 272 271 270 268 266 266 267 267 264 264 264 263 263 263 261 261 262
291 290 288 286 283 283 281 277 276 276 276 278 280 281 282 282 282 282 282 280 277 276 275 274 275 275 274 273 272 270 269 269 268 266 264 263 263 263 262 263 262 262 261
290 290 290 289 286 283 281 278 278 278 277 278 280 281 282 281 281 283 284 283 281 279 277 275 277 276 275 275 273 272 271 271 269 266 267 266 266 265 264 264 263 262 262
289 287 289 290 288 283 281 280 280 281 280 281 283 284 285 284 284 286 286 285 283 281 280 278 277 279 277 276 274 273 273 272 271 268 267 268 267 265 264 264 264 263 263
286 287 288 288 286 284 283 284 284 284 283 283 284 286 285 285 285 286 286 285 284 282 280 280 280 281 279 277 275 274 274 273 272 270 269 268 267 265 266 267 265 264 265
284 285 286 285 285 283 284 284 284 286 285 284 285 286 288 288 287 286 285 284 284 283 280 281 282 284 283 280 277 275 275 276 275 272 270 270 269 268 268 267 267 266 266
285 284 286 285 284 283 284 286 285 285 286 285 286 288 291 291 289 287 287 285 284 283 282 282 282 283 283 281 278 276 276 276 275 273 271 269 269 268 267 267 268 267 267
Height
5847 5846 5845 5845 5844 5843 5843 5843 5843 5843 5844 5845 5845 5846 5846 5847 5848 5849 5849 5851 5851 5852 5853 5854 5855 5856 5858 5859 5860 5861 5863 5865 5866 5867 5868 5870 5871 5873 5874 5875 5876 5877 5879
5843 5842 5841 5840 5839 5838 5838 5838 5838 5839 5840 5840 5841 5842 5842 5843 5844 5845 5845 5846 5847 5848 5849 5850 5851 5852 5853 5854 5856 5857 5859 5861 5862 5863 5864 5866 5867 5869 5870 5871 5872 5873 5875
5839 5838 5837 5835 5834 5834 5833 5833 5834 5834 5835 5836 5836 5837 5838 5839 5840 5840 5841 5842 5842 5843 5844 5845 5847 5848 5849 5850 5851 5853 5855 5856 5857 5859 5860 5861 5863 5864 5866 5867 5868 5869 5871
5835 5833 5832 5831 5830 5829 5829 5829 5829 5829 5830 5831 5832 5832 5833 5834 5835 5836 5837 5837 5838 5839 5839 5840 5842 5843 5844 5845 5847 5848 5850 5851 5853 5854 5856 5857 5858 5860 5861 5863 5864 5865 5866
5830 5829 5828 5826 5825 5825 5825 5825 5825 5825 5826 5826 5827 5827 5828 5829 5830 5831 5832 5833 5833 5834 5835 5836 5837 5838 5839 5840 5842 5843 5845 5846 5848 5849 5851 5852 5854 5855 5856 5858 5859 5860 5861
5826 5825 5823 5822 5822 5821 5821 5821 5821 5821 5821 5822 5822 5822 5823 5824 5825 5825 5826 5827 5828 5829 5830 5830 5831 5832 5833 5835 5837 5838 5840 5841 5842 5844 5846 5847 5849 5850 5851 5853 5854 5855 5856
5823 5821 5819 5818 5818 5818 5817 5817 5816 5817 5817 5817 5817 5817 5818 5818 5819 5820 5821 5822 5822 5823 5824 5825 5826 5827 5828 5829 5831 5833 5834 5835 5837 5839 5840 5842 5843 5845 5846 5847 5849 5850 5851
5819 5817 5816 5814 5814 5813 5813 5813 5813 5813 5812 5812 5812 5812 5813 5814 5814 5815 5816 5817 5817 5818 5818 5819 5820 5821 5822 5824 5825 5827 5828 5830 5831 5833 5834 5836 5837 5839 5840 5841 5842 5844 5845
5815 5813 5812 5811 5810 5809 5809 5809 5809 5809 5808 5808 5808 5808 5808 5809 5809 5810 5811 5811 5812 5812 5813 5814 5815 5816 5817 5818 5819 5821 5822 5824 5825 5827 5828 5830 5831 5832 5834 5835 5836 5837 5838
5810 5809 5808 5807 5806 5805 5805 5804 5804 5804 5803 5803 5803 5803 5803 5804 5805 5805 5806 5806 5806 5807 5808 5808 5809 5810 5811 5812 5813 5814 5816 5817 5819 5820 5822 5823 5825 5826 5827 5828 5829 5830 5831
5806 5805 5804 5803 5802 5801 5800 5800 5799 5799 5799 5798 5798 5798 5798 5799 5799 5800 5800 5800 5801 5801 5802 5803 5803 5804 5805 5806 5807 5808 5809 5810 5812 5813 5815 5816 5817 5818 5819 5820 5821 5822 5824
5802 5801 5800 5798 5797 5796 5796 5795 5795 5794 5794 5794 5793 5793 5793 5793 5794 5794 5794 5794 5795 5795 5796 5796 5797 5798 5798 5799 5800 5801 5803 5804 5805 5806 5807 5808 5809 5810 5811 5812 5813 5814 5815
5798 5796 5795 5794 5793 5792 5791 5790 5790 5790 5789 5789 5788 5788 5788 5788 5788 5788 5788 5788 5789 5789 5789 5790 5791 5791 5792 5793 5793 5794 5795 5796 5798 5798 5799 5800 5801 5802 5803 5804 5805 5806 5807
5793 5792 5791 5790 5788 5787 5786 5786 5785 5785 5784 5784 5784 5783 5783 5783 5782 5782 5782 5782 5782 5783 5783 5784 5784 5785 5785 5786 5786 5787 5788 5789 5790 5791 5791 5792 5793 5794 5794 5795 5796 5797 5798
5788 5787 5786 5785 5784 5783 5782 5781 5780 5780 5780 5779 5779 5778 5778 5777 5777 5777 5777 5777 5777 5777 5777 5778 5778 5778 5778 5779 5779 5780 5781 5782 5783 5783 5784 5784 5785 5786 5786 5787 5788 5789 5789
5783 5782 5781 5780 5779 5778 5777 5776 5776 5775 5775 5775 5774 5773 5773 5772 5772 5771 5771 5771 5771 5771 5771 5771 5771 5771 5772 5772 5772 5773 5773 5774 5775 5775 5776 5776 5777 5778 5778 5779 5780 5780 5781
5779 5778 5777 5775 5774 5773 5772 5772 5771 5771 5770 5770 5769 5769 5768 5767 5767 5766 5766 5765 5765 5765 5765 5765 5765 5765 5765 5765 5765 5766 5766 5766 5767 5767 5768 5768 5769 5769 5770 5771 5771 5772 5773
5774 5773 5772 5771 5770 5769 5768 5767 5767 5766 5766 5765 5765 5764 5764 5763 5762 5761 5760 5760 5760 5759 5759 5759 5759 5758 5758 5758 5758 5758 5758 5758 5759 5759 5760 5761 5761 5762 5762 5763 5763 5764 5764
5770 5769 5767 5767 5766 5765 5763 5763 5762 5762 5761 5761 5760 5759 5759 5758 5757 5756 5755 5755 5754 5753 5753 5753 5753 5752 5752 5751 5751 5751 5750 5751 5751 5751 5752 5752 5753 5753 5754 5754 5755 5755 5756
5766 5765 5763 5762 5761 5760 5759 5758 5758 5757 5757 5756 5755 5755 5754 5753 5752 5751 5750 5749 5748 5747 5747 5746 5746 5745 5745 5744 5743 5743 5743 5743 5743 5743 5743 5744 5744 5744 5745 5745 5746 5746 5746
5762 5761 5759 5758 5757 5756 5755 5754 5754 5753 5753 5752 5751 5750 5749 5748 5747 5745 5744 5743 5742 5741 5740 5739 5739 5738 5738 5737 5736 5735 5735 5735 5735 5735 5735 5735 5735 5735 5735 5736 5736 5736 5737
5759 5757 5756 5754 5753 5752 5751 5750 5749 5748 5748 5747 5746 5744 5743 5742 5741 5740 5738 5737 5736 5735 5734 5733 5732 5731 5731 5730 5729 5728 5727 5727 5726 5727 5726 5726 5726 5726 5726 5726 5727 5727 5727
5754 5753 5752 5750 5749 5748 5747 5746 5745 5744 5743 5742 5740 5739 5738 5737 5735 5734 5733 5731 5730 5728 5727 5726 5725 5724 5723 5722 5721 5720 5719 5719 5718 5717 5717 5717 5717 5716 5716 5717 5717 5717 5718
5750 5749 5747 5746 5745 5743 5742 5741 5740 5739 5738 5737 5735 5734 5732 5731 5729 5728 5727 5725 5724 5722 5721 5720 5718 5717 5715 5714 5713 5712 5711 5711 5710 5709 5708 5708 5708 5708 5708 5708 5708 5708 5708
5745 5744 5742 5741 5740 5739 5737 5736 5735 5734 5732 5731 5730 5728 5726 5725 5724 5722 5721 5719 5717 5715 5714 5712 5711 5709 5707 5706 5704 5704 5703 5703 5702 5701 5700 5700 5700 5699 5699 5699 5699 5699 5699
5740 5739 5737 5736 5735 5734 5732 5731 5730 5728 5727 5725 5724 5722 5721 5719 5717 5716 5714 5712 5710 5709 5707 5705 5703 5702 5700 5698 5697 5696 5696 5695 5694 5693 5692 5691 5691 5691 5691 5691 5690 5689 5689